User: anonymous   Login
Location: Unspecified
(0.0000°N, 0.0000°E)
Time: 22:15:27
(UTC+00:00)
Language:

STARLINK-4710 - Orbit

View from above orbital plane
View from above orbital plane
View from above satellite
View from above satellite

Ground track
Ground track

The orbit is defined by the following mean orbital elements,

1 53799U          26144.65574979 +.00000000 +00000-0 +61728-4 0 00003
2 53799  53.2150 283.1665 0001505  89.1482 270.9683 15.08843730    09
Epoch (UTC): 24 May 2026 15:44:16
Eccentricity: 0.0001505
inclination: 53.2150°
perigee height: 539 km
apogee height: 541 km
right ascension of ascending node: 283.1665°
argument of perigee: 89.1482°
revolutions per day: 15.08843730
mean anomaly at epoch: 270.9683°

The dashed part of the orbit path shows where the satellite is in the earth's shadow,  

DLR